CZ-3C DEB, 40203

Orbit data source: Space-Track

CZ-3C DEB, 40203 is space debris in HEO originally from a launch on Fri, 24 Feb 2012 UTC launched from the Xichang Space Center, China (XSC). Debris objects in space refer to the collection of defunct objects orbiting the Earth. Examples of debris include non-operational satellites, rocket bodies, and fragments generated from explosions, collisions, or faulty payload assembly.

Not visible in the next 10 days
Identifier
40203, 2012-008N
Orbit
HEO
Country
Flag of CNCN / PRC
Related business
Manufacturer
CALT
Mission
Spacecraft
Bus & Motor
Unknown
Mass
Unknown
Launch date (UTC)
2012-02-24 (14 years ago)
Launch vehicle
Unknown
Launch site
Xichang Space Center, China (XSC)
Object type
Payload
Rocket body
Debris
Shape & HBR
Unknown shape, 0.3 m
Radar Cross Section
Medium (>0.1 m² and <1 m²)

Expand to show TLE details & history
Last TLE update: 2 days ago

TLE from 2 days ago
0 CZ-3C DEB
1 40203U 12008N   26118.98281500  .00000118  00000-0  13046-2 0  9997
2 40203  20.4246 215.1364 7118831 134.5061 312.0432  2.35044733106238
Epoch: 2026-04-28T23:35Z
TLE epoch observation values (Epoch: 2026-04-28T23:35:15.215Z)
Latitude
0.00032°
Longitude
4.29219°
Altitude
17,191.945 km
Speed
4.14 km/s
True Right ascension
14h 20m 13s
True Declination
0° 00' 01"
Sunlit
Object was in full shadow at epoch
Visualization orbit readout
Latitude
Unknown
Longitude
Unknown
Altitude
Unknown
Speed
Unknown
Apparent Right ascension
Unknown
Apparent Declination
Unknown
Sunlit
N/A
Visualization observer readout
Local Sidereal Time
20:12:32
Azimuth
Unknown
Elevation
Unknown
Doppler factor
Unknown
Orbital elements
Apogee altitude
34,534.259 km
Perigee altitude
507.586 km
Semi-major axis
23,899.059 km
Eccentricity
0.71188
Inclination
20.4246°
RAAN
215.1364°
Arg. of periapsis
134.5061°
True anomaly
225.5073°
Mean anomaly
312.0432°
Eccentric anomaly
271.26525°
Mean motion
0.58745 °/min
Orbital period
612.82 mins
BSTAR
0.0013046
Loading maneuver chart data...
Computing Atmospheric mass density...
Loading historical data...
Loading historical data...
Loading historical data...
Loading historical data...
Loading historical data...
Loading historical data...
Loading historical data...

Documentation

Showing up to 5 results
|